Theta_e
336 333 332 330 330 330 330 330 330 331 330 330 330 329 329 328 328 327 326 326 327 327 326 326 329 328 328 328 328 329 328 328
337 334 331 330 331 330 330 330 330 330 330 329 329 328 328 329 327 327 327 327 326 326 328 328 328 329 329 329 329 329 329 328
337 334 331 329 330 330 330 330 331 331 329 329 329 329 328 328 327 327 326 326 325 328 329 329 328 329 328 329 328 328 328 328
336 334 332 331 330 330 330 330 330 331 330 330 330 330 329 328 327 326 326 326 326 329 329 328 326 329 329 329 328 329 327 328
336 334 333 331 330 331 331 331 331 331 330 330 330 330 329 327 327 326 326 326 328 329 328 327 323 328 329 329 328 328 327 327
335 333 331 331 331 331 331 331 332 332 331 331 331 329 328 327 325 326 326 326 328 329 328 324 324 329 330 329 328 327 327 327
333 332 331 331 331 332 331 329 331 332 331 331 331 328 327 327 327 326 326 327 328 328 326 324 324 329 330 328 327 327 327 326
331 332 331 330 330 331 329 328 330 331 331 331 329 328 327 326 326 326 327 327 328 327 325 325 325 330 330 328 327 326 325 325
331 331 329 329 330 329 327 327 329 331 331 330 329 328 326 326 326 327 327 327 327 327 326 325 326 329 330 328 328 326 324 324
331 329 328 328 329 328 326 327 329 330 330 329 329 328 327 327 327 327 327 327 327 326 326 324 326 328 330 329 328 327 324 323
330 329 326 326 327 328 325 327 329 330 329 329 330 328 327 327 328 328 328 327 327 326 325 325 326 328 330 329 327 326 326 324
329 326 325 322 325 327 328 327 328 329 329 329 329 328 328 328 328 328 328 328 326 326 325 324 325 327 327 328 327 326 326 325
326 326 326 324 324 326 327 326 328 328 328 328 329 329 328 328 328 329 328 328 328 328 327 325 326 326 328 328 327 326 326 325
326 324 324 323 323 324 324 325 326 327 327 328 329 329 328 329 329 328 329 329 328 328 328 327 326 327 329 328 326 326 326 326
324 326 323 322 322 323 323 324 324 326 327 328 328 329 329 329 328 327 326 327 329 328 328 328 326 327 328 328 326 326 325 325
317 323 322 321 321 320 322 322 324 326 327 328 328 329 330 329 327 327 327 325 323 326 328 328 327 327 328 328 326 326 325 325
313 313 312 312 312 312 319 321 324 326 327 328 328 329 330 329 328 326 325 324 323 323 327 328 328 326 327 327 327 326 324 324
309 310 309 309 310 310 312 319 322 325 326 328 329 329 329 329 328 326 323 322 322 322 326 328 328 326 326 326 326 326 325 326
306 305 305 306 308 310 310 315 318 321 325 326 327 328 329 329 329 328 326 324 322 322 323 327 330 329 327 327 327 327 327 325
303 304 302 303 306 309 311 314 317 320 323 323 325 327 328 328 328 329 329 327 326 324 323 322 325 328 328 327 326 327 327 327
Wind_Speed
12 9 9 8 12 16 21 25 28 27 26 24 21 19 16 16 16 16 15 13 10 8 4 2 2 2 4 7 7 6 8 9
12 9 9 7 13 16 20 24 27 26 23 22 20 18 16 16 15 14 13 10 9 5 4 6 2 3 6 1 4 5 4 5
7 11 9 7 11 16 20 24 24 22 20 19 17 15 15 17 15 12 12 10 7 7 9 5 3 3 4 4 4 2 3 2
6 9 11 10 12 15 21 22 21 19 17 14 13 13 13 15 15 12 12 10 6 11 8 5 4 5 3 1 3 2 3 7
10 9 10 10 15 20 21 21 18 14 13 13 13 14 16 15 14 12 11 8 10 10 6 4 4 5 4 4 5 5 9 12
8 7 6 13 20 23 21 19 17 14 15 14 15 16 17 14 14 12 10 9 11 10 6 4 4 6 6 8 8 10 13 15
10 13 14 17 22 23 20 17 17 13 15 16 17 18 14 12 12 12 11 11 10 10 7 4 3 5 8 9 11 13 15 14
11 18 17 22 22 22 20 17 17 15 17 18 18 16 14 14 13 13 11 10 11 10 7 4 4 5 9 9 11 15 16 16
19 21 18 22 23 22 18 18 19 19 19 18 17 15 14 11 12 11 10 12 12 10 7 5 5 5 8 9 12 14 16 17
19 16 16 21 24 24 18 19 21 18 21 18 16 14 13 11 12 10 11 12 14 11 9 7 6 4 8 9 9 11 16 19
19 18 17 21 25 26 21 22 19 19 20 17 17 14 13 12 12 11 11 12 13 12 9 6 6 6 8 9 10 12 14 19
16 17 13 14 26 27 27 22 20 21 21 16 15 15 14 12 9 10 10 10 10 12 10 8 8 6 10 12 13 13 14 20
8 10 14 17 27 26 24 22 22 22 22 18 16 14 14 13 10 9 7 5 7 13 13 11 11 10 11 13 15 17 20 23
7 7 10 15 25 26 22 23 23 23 21 20 19 19 16 14 11 9 7 5 4 4 6 8 9 6 12 13 14 18 20 24
14 9 8 10 21 23 21 22 23 23 24 23 21 21 19 17 13 11 9 7 6 6 5 6 5 9 12 13 15 19 22 22
19 18 22 21 19 14 7 16 21 22 22 24 24 25 23 20 17 15 12 11 9 8 9 8 6 7 11 14 16 20 22 20
16 27 28 25 24 22 7 10 17 19 21 22 24 25 25 22 18 15 12 9 6 7 12 12 11 10 12 13 16 20 20 18
24 18 23 23 22 22 17 4 12 15 18 21 23 24 24 22 20 17 14 12 9 8 13 15 17 16 18 19 20 20 21 23
22 22 22 23 22 20 20 15 9 5 10 14 17 18 21 24 24 23 21 17 15 14 14 17 19 23 23 24 25 25 25 25
17 21 24 23 22 17 17 23 19 15 8 7 13 18 18 18 22 24 25 23 21 19 17 16 18 22 21 23 25 27 28 28
Wind_Direction
127 119 115 120 122 126 128 130 132 135 134 133 135 138 142 146 149 150 149 151 153 156 165 239 179 324 292 274 257 270 231 233
131 121 121 124 132 134 136 137 139 140 140 142 145 149 151 152 150 152 154 152 153 166 157 136 99 351 344 340 245 227 199 206
144 135 131 125 135 141 145 146 148 152 150 155 153 153 153 152 153 156 162 159 159 162 136 111 71 42 49 66 70 137 179 174
142 149 142 149 152 153 156 156 160 163 163 161 158 157 160 160 158 156 156 160 167 152 128 104 78 57 58 45 108 106 129 126
152 167 167 156 160 164 166 166 164 166 164 170 170 166 162 165 163 164 167 169 166 150 140 109 70 40 29 79 101 109 127 128
151 150 167 161 171 173 171 167 170 173 178 175 176 169 168 174 158 165 181 182 171 160 153 114 66 40 57 116 110 116 128 132
160 159 167 169 177 178 175 170 176 174 184 179 178 175 171 164 163 170 171 172 167 162 158 121 71 58 91 115 117 124 125 129
155 161 171 172 182 181 176 174 178 181 188 185 182 178 174 167 168 176 174 180 169 168 153 127 95 86 105 121 125 130 127 129
154 159 169 180 179 182 177 179 188 197 188 188 184 184 185 183 181 184 174 175 173 170 153 128 112 97 122 124 134 138 140 131
158 155 163 179 179 181 178 186 198 190 190 189 182 185 184 173 173 175 172 170 168 164 154 132 122 120 130 129 130 143 147 135
162 161 155 179 184 189 184 202 191 186 193 186 190 183 177 173 171 173 168 176 174 169 162 151 137 124 135 130 129 136 145 142
158 146 155 164 184 194 203 198 191 189 194 183 191 184 170 167 172 171 168 170 174 170 169 169 153 142 140 140 137 145 150 141
131 161 169 176 181 193 199 195 190 192 197 188 195 188 180 171 169 174 174 173 188 178 182 182 173 164 164 156 151 150 156 152
71 121 169 175 174 188 190 190 193 195 193 190 194 189 184 183 176 164 170 139 152 176 185 188 188 182 163 158 156 154 155 156
10 105 112 161 164 181 184 189 196 198 199 197 194 194 187 185 184 184 172 152 160 156 153 170 174 165 167 168 161 159 161 166
25 71 69 81 89 75 162 201 198 202 205 204 196 195 196 196 196 195 194 174 160 171 167 160 156 164 167 169 167 167 167 179
54 54 49 49 49 31 37 188 209 209 203 204 206 204 204 204 202 202 202 194 175 159 167 171 172 167 177 177 180 183 182 188
53 44 36 36 37 25 25 66 197 209 215 213 210 209 206 206 207 209 211 214 203 192 187 180 175 176 178 188 196 200 203 204
56 53 37 29 22 26 32 53 79 140 208 220 219 219 215 212 211 214 217 216 218 214 214 206 204 196 197 201 205 209 214 218
54 47 34 22 30 26 34 49 60 66 73 200 214 220 227 227 224 223 224 226 228 229 231 223 218 214 218 218 220 222 224 227